25░ FERRARA MEETING
valido CDS 2021
3000m Uomini - RISULTATI18/06 - 11:57
SERIE - RISULTATI
Serie 1Campo Scuola G.Lenzi - 17 Giugno 2021 Ora Inizio: 21:58 
Clas.Pett.AtletaAnnoCat.SocietÓ Stato EsteroPrestazionePunti
141RICCIARDI Luis Matteo1993SMBO014 ATL. IMOLA SACMI AVIS8:31.13838
216DELLA PASQUA Alberto1991SMRN503 A.S.D. DINAMO SPORT8:33.16828
324GHINASSI Riccardo2003JMBO014 ATL. IMOLA SACMI AVIS8:33.91825
444SALAMI Najibe1985SM35RM052 C.S. ESERCITO8:35.91816
53ASTORI Nicolo'2004AMFE378 ATLETICA ESTENSE8:36.56813
635MUCCIOLI Roberto1990SMFC038 EDERA ATL. FORLI8:43.35783
717ERCOLI Marco1990SMPR436 CIRCOLO MINERVA ASD8:45.42774
84BAIOCCHI Nicola2005AMLI036 ATLETICA LIVORNO8:48.45761
92ASADO Abrham Angino2005AMFE537 POLISPORTIVA CENTESE ASD8:52.81742
     EQUIPARATO/A  
1050TONIN Alderico2000PMTV409 VITTORIO ATLETICA8:54.36735
115BAROZZI Davide2004AMTN109 U.S. QUERCIA TRENTINGRANA9:00.22710
1218FARO Alberto2003JMPD140 ASSINDUSTRIA SPORT9:11.73662
1353VALANDRO Federico1992SMPD140 ASSINDUSTRIA SPORT9:13.72654
 10BOMPREZZI Pietro1993SMVA123 CUS INSUBRIA VARESE COMODNS 
 23GENERALI Elia1985SM35BO124 ATL. CASTENASO CELTIC DRUIDDNS 
 38PEZZUTO Rocco Angelo1993SMLU351 G.P. PARCO ALPI APUANEDNS 
Passaggi: m. 1000: 2.54.0 - m. 2000: 5.49.4
Serie 2Campo Scuola G.Lenzi - 17 Giugno 2021 Ora Inizio: 22:09 
Clas.Pett.AtletaAnnoCat.SocietÓ Stato EsteroPrestazionePunti
143RIZZI Giovanni1993SMTA459 TOP RUNNERS LATERZA9:07.34680
21ANTONIOLLI Federico1985SM35FE025 ATL. BONDENO9:21.92621
320FRIGO Alberto2001PMVR784 FONDAZIONE M. BENTEGODI9:25.28608
436MURGIA Francesco2001PMBO427 CSI SASSO MARCONI9:36.54565
527LONZINO Alberto1984SM35PD140 ASSINDUSTRIA SPORT9:37.04563
657VIGNOLI Andrea1976SM45BO002 ACQUADELA BOLOGNA9:37.45561
759ZARDETTO Andrea2004AMVE471 ASD ATLETICA BIOTEKNA9:38.04559
856VESCHI Francesco2002JMBO427 CSI SASSO MARCONI9:39.07555
958ZAMBON Pietro2002JMVE471 ASD ATLETICA BIOTEKNA9:44.87533
108BEVERINI Diego2000PMRN273 ATL. RIMINI NORD SANTARCANGELO9:46.49527
1146SCARDOVI Gianluca1992SMBO014 ATL. IMOLA SACMI AVIS9:50.01514
1231MANDI Matteo1987SMBO124 ATL. CASTENASO CELTIC DRUID9:50.49513
1332MANZI Giuliano2005AMFC049 ATL. ENDAS CESENA10:01.09475
 39PRANOVI Marco1965SM55VE473 ATLETICA RIVIERA DEL BRENTADNF 
 9BIGI Patrick1980SM40MO497 MODENA ATLETICADNF 
 6BELMONTE Carmine1988SMBO124 ATL. CASTENASO CELTIC DRUIDDNS 
Passaggi: m. 1000: 2.57.4 - m. 2000: 6.01.8
Serie 3Campo Scuola G.Lenzi - 17 Giugno 2021 Ora Inizio: 22:21 
Clas.Pett.AtletaAnnoCat.SocietÓ Stato EsteroPrestazionePunti
142RIGHETTI Alessio2004AMVR762 ATL. VERONA ASD PINDEMONTE9:35.85567
226LASALVIA Pierluca1995SMFE026 C.U.S. FERRARA A.S.D.9:39.70553
360ZENNARO Gianluca2005AMPD131 G.S. FIAMME ORO PADOVA9:45.25532
47BERGOSSI Mattia2000PMFE028 CENTRO ATLETICA COPPARO10:00.94475
545SALVIATI Matteo2005AMPD131 G.S. FIAMME ORO PADOVA10:05.65459
612BORGHI Luciano1972SM45FE025 ATL. BONDENO10:09.50446
730MAGAGNOLI Alex1980SM40BO023 ATL. AVIS CASTEL S.PIETRO10:12.67435
811BONVENTO Alberto1970SM50BO544 PASSO CAPPONI ASD10:13.28433
947SIMONI Michele1986SM35RO297 SALCUS10:22.42402
1021GATTI Guido1981SM40BO124 ATL. CASTENASO CELTIC DRUID10:39.86347
1134MORACAS Marco1961SM60MO052 A.S. LA FRATELLANZA 187410:40.18346
 55VERARDI Andrea1984SM35BO124 ATL. CASTENASO CELTIC DRUIDDNS 
 15DASHAN Fadi Bruno1974SM45RA094 ATLETICA 85 FAENZADNS 
 49TEMPORIN Marco1982SM35VE473 ATLETICA RIVIERA DEL BRENTADNS 
Passaggi: m. 1000: 3.09.0 - m. 2000: 6.25.9
Serie 4Campo Scuola G.Lenzi - 17 Giugno 2021 Ora Inizio: 22:34 
Clas.Pett.AtletaAnnoCat.SocietÓ Stato EsteroPrestazionePunti
154VECCHIATTI Gianluigi1975SM45RO315 ASD RUN IT9:39.71553
219FRANCHETTO Alessio1988SMRO315 ASD RUN IT10:18.42415
322GELLI Fabio1977SM40RO315 ASD RUN IT10:38.13352
428MACCAFERRI Daniele2004AMFE537 POLISPORTIVA CENTESE ASD10:38.51351
513CERE' Massimo1974SM45BO124 ATL. CASTENASO CELTIC DRUID10:46.52327
661ZILIO Emanuele1977SM40VE473 ATLETICA RIVIERA DEL BRENTA10:52.41309
729MAGAGNOLI Luciano1956SM65FE028 CENTRO ATLETICA COPPARO11:29.36209
825GIORDANI Aris1954SM65BO124 ATL. CASTENASO CELTIC DRUID11:32.22201
948TARULLI Scelzo1973SM45RA002 G.P.A. LUGHESINA12:02.04133
1037PADOAN Lino1960SM60RO315 ASD RUN IT12:16.93102
1133MELLONI Luigi1961SM60FE537 POLISPORTIVA CENTESE ASD12:22.0592
1251TROMBON Mattia1988SMRO315 ASD RUN IT12:37.8663
1340RESCA Daniele1974SM45FE537 POLISPORTIVA CENTESE ASD12:59.3029
1452TROMBONI Eddi1976SM45RO315 ASD RUN IT13:11.9411
 14CHINAGLIA Alessandro1975SM45RO315 ASD RUN ITDNS 
Passaggi: m. 1000: 3.12.8 - m. 2000: 6.30.2
RIEPILOGOCampo Scuola G.Lenzi 
Clas.Pett.AtletaAnnoCat.SocietÓ Stato EsteroPrestazionePunti
141RICCIARDI Luis Matteo1993SMBO014 ATL. IMOLA SACMI AVIS8:31.13838
216DELLA PASQUA Alberto1991SMRN503 A.S.D. DINAMO SPORT8:33.16828
324GHINASSI Riccardo2003JMBO014 ATL. IMOLA SACMI AVIS8:33.91825
444SALAMI Najibe1985SM35RM052 C.S. ESERCITO8:35.91816
53ASTORI Nicolo'2004AMFE378 ATLETICA ESTENSE8:36.56813
635MUCCIOLI Roberto1990SMFC038 EDERA ATL. FORLI8:43.35783
717ERCOLI Marco1990SMPR436 CIRCOLO MINERVA ASD8:45.42774
84BAIOCCHI Nicola2005AMLI036 ATLETICA LIVORNO8:48.45761
92ASADO Abrham Angino2005AMFE537 POLISPORTIVA CENTESE ASD8:52.81742
     EQUIPARATO/A  
1050TONIN Alderico2000PMTV409 VITTORIO ATLETICA8:54.36735
115BAROZZI Davide2004AMTN109 U.S. QUERCIA TRENTINGRANA9:00.22710
1243RIZZI Giovanni1993SMTA459 TOP RUNNERS LATERZA9:07.34680
1318FARO Alberto2003JMPD140 ASSINDUSTRIA SPORT9:11.73662
1453VALANDRO Federico1992SMPD140 ASSINDUSTRIA SPORT9:13.72654
151ANTONIOLLI Federico1985SM35FE025 ATL. BONDENO9:21.92621
1620FRIGO Alberto2001PMVR784 FONDAZIONE M. BENTEGODI9:25.28608
1742RIGHETTI Alessio2004AMVR762 ATL. VERONA ASD PINDEMONTE9:35.85567
1836MURGIA Francesco2001PMBO427 CSI SASSO MARCONI9:36.54565
1927LONZINO Alberto1984SM35PD140 ASSINDUSTRIA SPORT9:37.04563
2057VIGNOLI Andrea1976SM45BO002 ACQUADELA BOLOGNA9:37.45561
2159ZARDETTO Andrea2004AMVE471 ASD ATLETICA BIOTEKNA9:38.04559
2256VESCHI Francesco2002JMBO427 CSI SASSO MARCONI9:39.07555
2326LASALVIA Pierluca1995SMFE026 C.U.S. FERRARA A.S.D.9:39.70553
2454VECCHIATTI Gianluigi1975SM45RO315 ASD RUN IT9:39.71553
2558ZAMBON Pietro2002JMVE471 ASD ATLETICA BIOTEKNA9:44.87533
2660ZENNARO Gianluca2005AMPD131 G.S. FIAMME ORO PADOVA9:45.25532
278BEVERINI Diego2000PMRN273 ATL. RIMINI NORD SANTARCANGELO9:46.49527
2846SCARDOVI Gianluca1992SMBO014 ATL. IMOLA SACMI AVIS9:50.01514
2931MANDI Matteo1987SMBO124 ATL. CASTENASO CELTIC DRUID9:50.49513
307BERGOSSI Mattia2000PMFE028 CENTRO ATLETICA COPPARO10:00.94475
3132MANZI Giuliano2005AMFC049 ATL. ENDAS CESENA10:01.09475
3245SALVIATI Matteo2005AMPD131 G.S. FIAMME ORO PADOVA10:05.65459
3312BORGHI Luciano1972SM45FE025 ATL. BONDENO10:09.50446
3430MAGAGNOLI Alex1980SM40BO023 ATL. AVIS CASTEL S.PIETRO10:12.67435
3511BONVENTO Alberto1970SM50BO544 PASSO CAPPONI ASD10:13.28433
3619FRANCHETTO Alessio1988SMRO315 ASD RUN IT10:18.42415
3747SIMONI Michele1986SM35RO297 SALCUS10:22.42402
3822GELLI Fabio1977SM40RO315 ASD RUN IT10:38.13352
3928MACCAFERRI Daniele2004AMFE537 POLISPORTIVA CENTESE ASD10:38.51351
4021GATTI Guido1981SM40BO124 ATL. CASTENASO CELTIC DRUID10:39.86347
4134MORACAS Marco1961SM60MO052 A.S. LA FRATELLANZA 187410:40.18346
4213CERE' Massimo1974SM45BO124 ATL. CASTENASO CELTIC DRUID10:46.52327
4361ZILIO Emanuele1977SM40VE473 ATLETICA RIVIERA DEL BRENTA10:52.41309
4429MAGAGNOLI Luciano1956SM65FE028 CENTRO ATLETICA COPPARO11:29.36209
4525GIORDANI Aris1954SM65BO124 ATL. CASTENASO CELTIC DRUID11:32.22201
4648TARULLI Scelzo1973SM45RA002 G.P.A. LUGHESINA12:02.04133
4737PADOAN Lino1960SM60RO315 ASD RUN IT12:16.93102
4833MELLONI Luigi1961SM60FE537 POLISPORTIVA CENTESE ASD12:22.0592
4951TROMBON Mattia1988SMRO315 ASD RUN IT12:37.8663
5040RESCA Daniele1974SM45FE537 POLISPORTIVA CENTESE ASD12:59.3029
5152TROMBONI Eddi1976SM45RO315 ASD RUN IT13:11.9411
 39PRANOVI Marco1965SM55VE473 ATLETICA RIVIERA DEL BRENTADNF 
 9BIGI Patrick1980SM40MO497 MODENA ATLETICADNF 
 14CHINAGLIA Alessandro1975SM45RO315 ASD RUN ITDNS 
 38PEZZUTO Rocco Angelo1993SMLU351 G.P. PARCO ALPI APUANEDNS 
 23GENERALI Elia1985SM35BO124 ATL. CASTENASO CELTIC DRUIDDNS 
 10BOMPREZZI Pietro1993SMVA123 CUS INSUBRIA VARESE COMODNS 
 55VERARDI Andrea1984SM35BO124 ATL. CASTENASO CELTIC DRUIDDNS 
 15DASHAN Fadi Bruno1974SM45RA094 ATLETICA 85 FAENZADNS 
 49TEMPORIN Marco1982SM35VE473 ATLETICA RIVIERA DEL BRENTADNS 
 6BELMONTE Carmine1988SMBO124 ATL. CASTENASO CELTIC DRUIDDNS 
SIGMA: Sistema di Gestione MAnifestazioni di Atletica Leggera - ProprietÓ: FIDAL - Realizzazione: AM-Linkweb